Weather History for KPVU - January, 2012

Change the Weather History Date:

Friday, January 27, 2012

  Actual Average Record
Temperature  
Mean Temperature 30 °F -  
Max Temperature 37 °F 36 °F 55 °F (1998)
Min Temperature 23 °F 22 °F -6 °F (1989)
Degree Days  
Heating Degree Days 35    
Moisture  
Dew Point 23 °F    
Average Humidity 69    
Maximum Humidity 93    
Minimum Humidity 52    
Precipitation  
Precipitation 0.00 in - - ()
Sea Level Pressure  
Sea Level Pressure 30.32 in    
Wind  
Wind Speed 10 mph (NW)    
Max Wind Speed 21 mph    
Max Gust Speed 21 mph    
Visibility 11 miles    
Events      
Averages and records for this station are not official NWS values.
T = Trace of Precipitation, MM = Missing Value Source: NWS Daily Summary

Daily Weather History Graph

Daily Weather History Graph

Search for Another Location

Airport or City:

Trip Planner

Search our weather history database for the weather conditions in past years. The results will help you decide how hot, cold, wet, or windy it might be!

Date:

Astronomy

Jan. 27, 2012 Rise Set
Actual Time 7:40 AM MST 5:39 PM MST
Civil Twilight 7:11 AM MST 6:08 PM MST
Nautical Twilight 6:38 AM MST 6:41 PM MST
Astronomical Twilight 6:06 AM MST 7:13 PM MST
Moon 9:36 AM MST (1/27) 10:34 PM MST (1/27)
Length of Visible Light 10h 56m
Length of Day
9h 58m
Waxing Crescent, 20% of the Moon is Illuminated
Jan 27
Waxing Crescent
Jan 30
First Quarter
Feb 7
Full
Feb 14
Last Quarter
Feb 21
New

Hourly Weather History & Observations

Time (MST) Temp. Windchill Dew Point Humidity Pressure Visibility Wind Dir Wind Speed Gust Speed Precip Events Conditions
12:15 AM 37.4 °F 31.4 °F 33.8 °F 87% 30.12 in 10.0 mi WSW 8.1 mph - N/A   Mostly Cloudy
12:35 AM 37.4 °F 30.8 °F 33.8 °F 87% 30.13 in 10.0 mi WSW 9.2 mph - N/A   Overcast
12:55 AM 35.6 °F 28.6 °F 33.8 °F 93% 30.15 in 10.0 mi WSW 9.2 mph - N/A   Overcast
1:35 AM 37.4 °F 31.4 °F 28.4 °F 70% 30.16 in 10.0 mi NW 8.1 mph - N/A   Mostly Cloudy
1:55 AM 35.6 °F 28.6 °F 28.4 °F 75% 30.16 in 10.0 mi NW 9.2 mph - N/A   Partly Cloudy
2:15 AM 35.6 °F 28.6 °F 28.4 °F 75% 30.16 in 10.0 mi WNW 9.2 mph - N/A   Clear
2:35 AM 35.6 °F 27.1 °F 28.4 °F 75% 30.17 in 10.0 mi NNW 12.7 mph - N/A   Clear
2:55 AM 35.6 °F 27.5 °F 26.6 °F 70% 30.17 in 10.0 mi NNW 11.5 mph - N/A   Clear
3:15 AM 35.6 °F 25.9 °F 26.6 °F 70% 30.17 in 10.0 mi NW 16.1 mph - N/A   Clear
3:35 AM 35.6 °F 26.2 °F 24.8 °F 65% 30.18 in 10.0 mi NNW 15.0 mph - N/A   Clear
3:55 AM 33.8 °F 25.8 °F 24.8 °F 70% 30.20 in 10.0 mi NNW 10.4 mph - N/A   Clear
4:15 AM 33.8 °F 23.9 °F 24.8 °F 70% 30.20 in 10.0 mi NW 15.0 mph - N/A   Clear
4:35 AM 33.8 °F 22.8 °F 23.0 °F 65% 30.21 in 10.0 mi NNW 18.4 mph - N/A   Clear
4:55 AM 33.8 °F 22.2 °F 24.8 °F 70% 30.23 in 10.0 mi NNW 20.7 mph - N/A   Clear
5:15 AM 33.8 °F 23.2 °F 23.0 °F 65% 30.23 in 10.0 mi NNW 17.3 mph - N/A   Partly Cloudy
5:35 AM 33.8 °F 23.9 °F 21.2 °F 60% 30.25 in 10.0 mi NNW 15.0 mph - N/A   Clear
5:55 AM 33.8 °F 23.5 °F 21.2 °F 60% 30.26 in 10.0 mi NNW 16.1 mph 20.7 mph N/A   Clear
6:15 AM 33.8 °F 24.3 °F 19.4 °F 56% 30.27 in 10.0 mi NNW 13.8 mph 20.7 mph N/A   Clear
6:35 AM 32.0 °F 21.2 °F 21.2 °F 64% 30.28 in 10.0 mi NW 16.1 mph - N/A   Clear
6:53 AM 32.0 °F 22.5 °F 21.2 °F 64% 30.29 in 10.0 mi WNW 12.7 mph - N/A   Partly Cloudy
7:48 AM 30.2 °F 24.3 °F 21.2 °F 69% 30.32 in 10.0 mi NNW 5.8 mph - N/A   Partly Cloudy
8:49 AM 32.0 °F 22.1 °F 17.6 °F 55% 30.35 in 15.0 mi NW 13.8 mph - N/A   Partly Cloudy
9:47 AM 33.8 °F 23.9 °F 17.6 °F 52% 30.36 in 15.0 mi NW 15.0 mph 20.7 mph N/A   Partly Cloudy
10:52 AM 33.8 °F 25.3 °F 17.6 °F 52% 30.40 in 15.0 mi NW 11.5 mph 18.4 mph N/A   Partly Cloudy
11:51 AM 35.6 °F 31.7 °F 21.2 °F 56% 30.41 in 15.0 mi WNW 4.6 mph - N/A   Partly Cloudy
12:54 PM 35.6 °F 27.5 °F 19.4 °F 52% 30.40 in 15.0 mi WNW 11.5 mph - N/A   Partly Cloudy
2:48 PM 35.6 °F 28.0 °F 23.0 °F 60% 30.38 in 15.0 mi West 10.4 mph - N/A   Scattered Clouds
3:56 PM 35.6 °F 29.2 °F 21.2 °F 56% 30.41 in 15.0 mi WNW 8.1 mph - N/A   Scattered Clouds
4:52 PM 35.6 °F - 19.4 °F 52% 30.41 in 15.0 mi Calm Calm - N/A   Scattered Clouds
5:48 PM 30.2 °F 21.9 °F 21.2 °F 69% 30.42 in 15.0 mi NW 9.2 mph - N/A   Partly Cloudy
6:47 PM 30.2 °F 21.3 °F 21.2 °F 69% 30.45 in 15.0 mi NW 10.4 mph - N/A   Partly Cloudy
9:15 PM 28.4 °F 18.5 °F 21.2 °F 74% 30.51 in 10.0 mi NW 11.5 mph - N/A   Clear
9:35 PM 28.4 °F 18.5 °F 21.2 °F 74% 30.51 in 10.0 mi NW 11.5 mph - N/A   Mostly Cloudy
9:55 PM 28.4 °F 20.4 °F 19.4 °F 69% 30.51 in 10.0 mi NW 8.1 mph - N/A   Mostly Cloudy
10:15 PM 26.6 °F 19.1 °F 19.4 °F 74% 30.51 in 10.0 mi NW 6.9 mph - N/A   Partly Cloudy
10:35 PM 26.6 °F 19.1 °F 19.4 °F 74% 30.51 in 10.0 mi NW 6.9 mph - N/A   Clear
10:55 PM 24.8 °F - 19.4 °F 80% 30.52 in 10.0 mi Calm Calm - N/A   Clear
11:15 PM 24.8 °F 19.1 °F 21.2 °F 86% 30.52 in 10.0 mi East 4.6 mph - N/A   Clear
11:35 PM 23.0 °F 15.8 °F 21.2 °F 93% 30.52 in 10.0 mi ESE 5.8 mph - N/A   Clear
11:55 PM 24.8 °F - 23.0 °F 93% 30.52 in 10.0 mi Calm Calm - N/A   Clear